Regional Weather Roundup
Issued by NWS Charleston, SC

Current Version | Previous Version | Text Only | Print | Product List | Glossary Off
Versions: 1 2 3 4 5 6 7 8 9 10 11 12 13 14 15 16 17 18 19 20 21 22 23 24 25 26 27 28 29 30 31 32 33 34 35 36 37 38 39 40 41 42 43 44 45 46 47 48 49 50

246
ASUS42 KCHS 281328
RWRCHS

REGIONAL WEATHER ROUNDUP
NATIONAL WEATHER SERVICE CHARLESTON SC
900 AM EDT THU JUL 28 2016

NOTE: "FAIR" INDICATES FEW OR NO CLOUDS BELOW 12,000 FEET WITH NO
SIGNIFICANT WEATHER AND/OR OBSTRUCTIONS TO VISIBILITY.

NOT ALL STATIONS ARE QUALITY CONTROLLED. USE DATA WITH CAUTION...
ESPECIALLY DEWPOINT OBSERVATIONS.

SCZ027-030-031-034>040-042>050-281400-
...SOUTHEAST SOUTH CAROLINA...

CITY           SKY/WX    TMP DP  RH WIND       PRES   REMARKS
N CHARLESTON   SUNNY     87  72  60 NW6       30.02R HX  93
WATERFRONT PRK   N/A     85  74  69 W6        29.99R HX  93
MOUNT PLEASANT FAIR      88  73  62 W7        30.02R HX  96
JOHNS ISLAND   FAIR      88  73  62 W9        30.03R HX  96
PINOPOLIS        N/A     82  73  74 W8        29.94R
MONCKS CORNER  FAIR      82  70  65 W6        30.02R
SUMMERVILLE    FAIR      86  73  66 W6        30.03R HX  93
BEAUFORT MCAS  SUNNY     86  72  62 CALM      30.03S HX  92
BEAUFORT ARPT  FAIR      86  72  62 W9        30.03S HX  92
HILTON HEAD IS SUNNY     84  72  65 SW7       30.04R
WALTERBORO     SUNNY     86  72  62 W6        30.03S HX  92
ALLENDALE      FAIR      84  72  65 VRB5      30.02F

...SOUTHERN MIDLANDS AND PEE DEE...

CITY           SKY/WX    TMP DP  RH WIND       PRES   REMARKS
GEORGETOWN     FAIR      84  73  70 W10       30.02R HX  91
KINGSTREE      FAIR      84  70  61 W7        30.01R
ORANGEBURG     SUNNY     85  71  63 W9        30.02S HX  90
BARNWELL       NOT AVBL
AIKEN          FAIR      82  70  65 W9        30.06S
MANNING        FAIR      84  70  61 W7        30.01S
COLUMBIA       SUNNY     88  69  53 W13       30.00R HX  92
SUMTER         SUNNY     84  71  63 W10       29.98R
FLORENCE       SUNNY     86  71  60 W10       29.99R HX  91
MYRTLE BEACH   SUNNY     88  68  51 W12       30.01R HX  91
N MYRTLE BEACH SUNNY     86  73  65 W8        29.98R HX  93

$$

GAZ063-065-086>088-099>101-113>116-118-119-134>141-150-281400-
...SOUTHEAST GEORGIA...

CITY           SKY/WX    TMP DP  RH WIND       PRES   REMARKS
SAVANNAH ARPT  SUNNY     85  71  63 W8        30.04S HX  90
HUNTER AAF     SUNNY     85  76  74 NW8       30.02S HX  94
FORT STEWART   SUNNY     84  72  67 W6        30.03S
STATESBORO     SUNNY     84  75  73 W6        30.04F HX  92
SYLVANIA       NOT AVBL
CLAXTON        FAIR      85  74  70 W8        30.05S HAZE    HX  92

...CSRA...CENTRAL AND FAR SOUTHEAST GEORGIA...

CITY           SKY/WX    TMP DP  RH WIND       PRES   REMARKS
THOMSON        NOT AVBL
AUGUSTA-BUSH   SUNNY     84  71  65 W9        30.01F
AUGUSTA-DANIEL SUNNY     84  70  62 W7        30.04R
SWAINSBORO     FAIR      82  72  69 W6        30.06S
VIDALIA        SUNNY     84  72  65 NW5       30.06S
EASTMAN        FAIR      83  66  55 W6        30.08S
HAZLEHURST     FAIR      85  76  74 CALM      30.06R HX  95
ALMA           SUNNY     82  74  76 NW6       30.07R
WAYCROSS       SUNNY     87  78  74 NW8       30.07S HX 100
JESUP          FAIR      86  79  79 NW6       30.06S HX  99
BAXLEY         FAIR      84  79  84 W5        30.06S HX  96
BRUNSWICK      SUNNY     86  77  74 NW3       30.06S HX  97
SAINT SIMONS   SUNNY     85  74  69 NW6       30.05R HX  92

$$

SCZ027-028-034-036>038-045-046-048>050-GAZ119-141-281400-
...LAKE AND SUPPLEMENTAL COASTAL OBSERVATIONS...

STATION/POSITION TIME  TEMP    WIND        PRES    WAVE   SWELL
                       AIR SEA DIR/SP/G            HT/PER HT/PER/DIR
                 (UTC) (F)     (DEG/KT/KT) (MB)    (FT/S) (FT/S/D)
WINYAH BAY       1245   84     280/  7     1015.0S
LAKE MURRAY      1300   83     270/ 14/ 16 1015.2S
ACE BASIN NERRS  1200   82     260/  1     1017.0R
FORT PULASKI     1300   84 87  290/ 10/ 12 1017.5R
SAPELO ISLAND    1300   84     310/  8     1018.0R

$$

ANZ835-935-AMZ111-154-330-350-352-354-370-450-454-472-281400-
...C-MAN AND BUOY OBSERVATIONS...

STATION/POSITION TIME  TEMP    WIND        PRES    WAVE   SWELL
                       AIR SEA DIR/SP/G            HT/PER HT/PER/DIR
                 (UTC) (F)     (DEG/KT/KT) (MB)    (FT/S) (FT/S/D)
BUOY 41004       1250   86 86  260/ 14/ 16 1016.0R   4/ 5   2/150/ 8
BUOY 41008       1250   84 86  290/ 10/ 12 1017.3R   2/ 5   2/150/ 5
FOLLY BEACH CMAN 1300   85     300/  5/  7 1016.6R
CAPERS NEARSHORE 1308   84 83  290/  6/ 10 1016.4R
FRIPP NEARSHORE  1308   84 87  290/ 10/ 14 1016.4R


STATION/POSITION TIME  TEMP    WIND        PRES    WAVE   SWELL
                       AIR SEA DIR/SP/G            HT/PER HT/PER/DIR
                 (UTC) (F)     (DEG/KT/KT) (MB)    (FT/S) (FT/S/D)
5E ST. MARYS GA  1301      86                N/A     2/ 4
FRYING PAN BUOY  1300   85 85  260/ 12/ 14 1015.3R
BUOY 41025       1250   84 83  220/ 10/ 10 1014.3F   2/ 6   2/210/ 6
CAPE LOOKOUT NC  1300   85     250/  9/ 11 1014.2R
BUOY 41002       1250   84 84  280/  8/ 10 1017.2R   3/ 6   3/260/ 6
BUOY 41010       1220   85 86  220/  8/ 10 1018.5R
ST AUGUSTINE FL  1300   85 84  270/  5/  6 1019.2R


$$




USA.gov is the U.S. government's official web portal to all federal, state and local government web resources and services.